Regional Weather Roundup
Issued by NWS

Home | Current Version | Previous Version | Graphics & Text | Print | Product List | Glossary On
Versions: 1 2 3 4 5 6 7 8 9 10 11 12 13 14 15 16 17 18 19 20 21 22 23 24 25 26 27 28 29 30 31 32 33 34 35 36 37 38 39 40 41 42 43 44 45 46 47 48 49 50
000
ASUS43 KMPX 311501
RWRMN
WEATHER ROUNDUP FOR MINNESOTA
NATIONAL WEATHER SERVICE TWIN CITIES/CHANHASSEN MN
900 AM CST SAT JAN 31 2015


NOTE: "FAIR" INDICATES FEW OR NO CLOUDS BELOW 12,000 FEET WITH NO
SIGNIFICANT WEATHER AND/OR OBSTRUCTIONS TO VISIBILITY. N/A MEANS
CURRENT SKY AND/OR WEATHER CONDITIONS ARE NOT AVAILABLE.

MNZ060>063-068>070-311600-
   Twin Cities Metro

CITY           SKY/WX    TMP DP  RH WIND       PRES   REMARKS
TWIN CITIES    CLOUDY    27  22  81 N9        30.18R WCI  18
ST PAUL        CLOUDY    28  23  81 N12       30.20R WCI  18
CRYSTAL        CLOUDY    28  23  81 N8        30.18R WCI  20
BLAINE         CLOUDY    28  27  93 N12G17    30.18R WCI  18
LAKEVILLE      PTSUNNY   25  23  93 N3        30.18R
EDEN PRAIRIE   CLOUDY    26  23  88 N9        30.17R WCI  17
SOUTH ST PAUL  CLOUDY    28  24  85 N6        30.18R WCI  21
LAKE ELMO      CLOUDY    28  27  93 N9        30.19R WCI  20
$$
MNZ001>005-007-008-013>017-022>024-027-028-311600-
   Northwest Minnesota

CITY           SKY/WX    TMP DP  RH WIND       PRES   REMARKS
BEMIDJI        PTCLDY     6  -4  61 N12G17    30.28R WCI  -9
HALLOCK        PTCLDY    -2  -9  71 N16G24    30.46R WCI -23
ROSEAU         PTCLDY    -2  -9  71 N13       30.39R WCI -21
WARROAD        PTCLDY    -4  -9  77 NW8       30.39R WCI -19
THIEF RVR FALL PTCLDY     3  -2  78 N16       30.37R WCI -16
CROOKSTON      PTCLDY     5  -2  72 N17       30.42R WCI -14
FOSSTON        PTCLDY     3   0  85 N16       30.33R WCI -16
DETROIT LAKES  FLURRIES  12  10  92 N10       30.27R WCI  -1
MOORHEAD       PTCLDY    10   0  61 N21       30.34R WCI  -9
PARK RAPIDS    MOCLDY    16   8  71 N12       30.22S WCI   3
MAHNOMEN       FAIR       7  -1  71 N17       30.29R WCI -12
$$
MNZ006-009>011-018-025>026-311600-
   North Central Minnesota

CITY           SKY/WX    TMP DP  RH WIND       PRES   REMARKS
BAUDETTE       CLOUDY    -2  -7  79 NW12      30.34R WCI -20
FLAG ISLAND    PTCLDY    -6  -9  84 NW15      30.37R WCI -27
INTL FALLS     PTCLDY     4  -2  76 N8        30.29R WCI  -9
WASKISH        MOCLDY     3  -4  72 NW3       30.32R
BIG FORK       LGT SNOW  10   5  79 NW7       30.26R WCI   0
LONGVILLE      FAIR      14   9  79 NW3       30.24R
GRAND RAPIDS   CLOUDY    14   7  73 NW13      30.22R WCI   0
CRANE LAKE     PTSUNNY    7   1  78 NW9       30.28R WCI  -7
ORR            LGT SNOW   9   3  78 NW3       30.22R
COOK           PTSUNNY    9   3  78 NW7       30.24R WCI  -3
WALKER         FAIR      12   5  74 N7        30.24R WCI   1
$$
MNZ012-019>021-037-311600-
   Northeast Minnesota

CITY           SKY/WX    TMP DP  RH WIND       PRES   REMARKS
DULUTH         LGT SNOW  19  11  70 NW9       30.16R WCI   8
ELY            LGT SNOW  10   5  79 NW7       30.19S WCI   0
HIBBING        FLURRIES  15   6  67 N12       30.21R WCI   2
EVELETH        FLURRIES  14   7  73 N10G16    30.22R WCI   1
DULUTH HARBOR  CLOUDY    23  16  74 N17       30.23S WCI   9
TWO HARBORS    LGT SNOW  21  12  68 NW7       30.17R WCI  13
SILVER BAY     FLURRIES  18   9  68 NW10G18   30.17R WCI   6
GRAND MARAIS     N/A     16   5  62 MISG      30.21R
G MARAIS ARPRT LGT SNOW   9   0  66 NW12G22   30.11R WCI  -6
$$
MNZ029>031-032-039>041-046>048-054>057-064-311600-
   West Central Minnesota

CITY           SKY/WX    TMP DP  RH WIND       PRES   REMARKS
FERGUS FALLS   CLOUDY    16  10  79 N12       30.29R WCI   3
WHEATON        CLOUDY    16  12  86 N15G22    30.28R WCI   1
MORRIS         CLOUDY    21  19  93 N14       30.21S FOG     WCI   8
ALEXANDRIA     CLOUDY    22  18  85 N14       30.19R WCI   9
ELBOW LAKE     CLOUDY    18  16  89 N13       30.22S WCI   5
WADENA         CLOUDY    18  16  93 N8        30.22R WCI   7
GLENWOOD       CLOUDY    21  19  93 N14G21    30.19R WCI   8
APPLETON       CLOUDY    21  19  93 N15       30.22S WCI   8
BENSON         CLOUDY    23  19  86 NE10      30.20S WCI  12
ORTONVILLE     CLOUDY    19  16  86 N22       30.22F WCI   3
MADISON        CLOUDY    25  21  86 N12       30.22S FOG     WCI  14
WILLMAR        CLOUDY    25  21  86 NE14      30.20R FOG     WCI  13
$$
MNZ033>034-036-042>043-049>051-058-059-311600-
   Central Minnesota

CITY           SKY/WX    TMP DP  RH WIND       PRES   REMARKS
ST CLOUD       CLOUDY    25  20  81 N9        30.19R WCI  15
SAUK CENTRE    CLOUDY    23  20  89 N10       30.19S WCI  12
PAYNESVILLE    CLOUDY    22  20  94 N13G18    30.18S WCI  10
AITKIN         CLOUDY    23  14  68 N10       30.20R WCI  12
PINE RIVER     PTSUNNY   16  10  79 N14       30.26R WCI   1
BRAINERD       CLOUDY    20  14  77 N10       30.21R WCI   9
STAPLES        CLOUDY    19  12  73 N12       30.21R WCI   7
LONG PRAIRIE   CLOUDY    23  19  86 N12       30.20R WCI  12
LITTLE FALLS   PTSUNNY   23  18  80 N7        30.21R WCI  15
LITCHFIELD     CLOUDY    27  27 100 N8        30.18S WCI  18
BUFFALO        CLOUDY    26  23  87 N8        30.19R WCI  18
MAPLE LAKE     CLOUDY    27  25  91 N8        30.19S WCI  19
$$
MNZ037-044-045-052-053-311600-
   East Central Minnesota

CITY           SKY/WX    TMP DP  RH WIND       PRES   REMARKS
PRINCETON      CLOUDY    27  21  80 N8        30.20R WCI  18
MORA           CLOUDY    27  19  74 N7        30.21R WCI  19
CAMBRIDGE      CLOUDY    27  18  69 N8        30.19R WCI  18
RUSH CITY      CLOUDY    26  20  78 N9        30.21R WCI  16
MOOSE LAKE     CLOUDY    23  18  80 N10G17    30.18R WCI  12
HINCKLEY       CLOUDY    27  19  74 N9        30.18S WCI  17
CLOQUET        FLURRIES  19  12  73 N14G21    30.19R WCI   6
MCGREGOR       CLOUDY    21  18  86 NW13      30.20R WCI   9
$$
MNZ071>073-080-081-089-090-097-098-311600-
   Southwest Minnesota

CITY           SKY/WX    TMP DP  RH WIND       PRES   REMARKS
MONTEVIDEO     CLOUDY    23  21  93 NE9       30.21S WCI  13
GRANITE FALLS  CLOUDY    24  22  93 N6        30.21S FOG     WCI  17
CANBY          CLOUDY    21  20  95 N9        30.22S FOG     WCI  10
MARSHALL       CLOUDY    23  19  86 N9        30.20S WCI  13
REDWOOD FALLS  CLOUDY    25  23  92 N7        30.19R FOG     WCI  17
OLIVIA         CLOUDY    23  23 100 N8        30.19R FOG     WCI  14
PIPESTONE      FOG       23  21  93 E12       30.14R VSB 1/2 WCI  12
WINDOM         CLOUDY    25  23  93 N13       30.16S FOG     WCI  13
WORTHINGTON    CLOUDY    23  21  93 NE14      30.16R VSB 1   WCI  11
JACKSON        CLOUDY    27  23  86 VRB13     30.15R FOG     WCI  16
TRACY          FOG       25  24  96 N9        30.18R VSB 1   WCI  15
SLAYTON        FOG       23  23  97 N9        30.16R VSB 1   WCI  13
$$
MNZ065>067-074>077-082>085-091>093-311600-
   South Central Minnesota

CITY           SKY/WX    TMP DP  RH WIND       PRES   REMARKS
MANKATO        CLOUDY    25  21  86 NE9       30.16R VSB 1/4 WCI  15
NEW ULM        PTSUNNY   23  21  93 CALM      30.18R
ST JAMES       CLOUDY    25  23  93 NW8       30.19R FOG     WCI  16
FAIRMONT       CLOUDY    25  21  86 N10       30.15R WCI  15
GLENCOE        CLOUDY    25  24  97 N3        30.18R FOG
FARIBAULT      CLOUDY    25  23  93 CALM      30.18R FOG
OWATONNA       CLOUDY    27  23  86 CALM      30.15R FOG
WASECA         CLOUDY    25  23  93 NE5       30.17R FOG     WCI  19
ALBERT LEA     MOSUNNY   25  23  93 CALM      30.14R
$$
MNZ078>079-086>088-094>096-311600-
   Southeast Minnesota

CITY           SKY/WX    TMP DP  RH WIND       PRES   REMARKS
ROCHESTER      CLOUDY    24  21  88 NW3       30.15R
RED WING       CLOUDY    27  21  80 CALM      30.17R
STANTON        CLOUDY    27  24  87 CALM      30.17R
DODGE CENTER   CLOUDY    25  25 100 CALM      30.15R
WINONA         CLOUDY    28  21  74 CALM      30.19R
AUSTIN         PTSUNNY   21  18  86 CALM      30.14S
PRESTON        CLOUDY    22  19  88 CALM      30.15R
$$
ABBREVIATIONS USED IN REMARKS
   TC - TEMPERATURES IN CELSIUS
  WCI - WIND CHILL INDEX
   HX - HEAT INDEX
  VSB - VISIBILITY
$$



USA.gov is the U.S. government's official web portal to all federal, state and local government web resources and services.